Location: Pasadena, ca
(34.1243°N, 118.1037°W)
Time: 13:32:30
(UTC-07:00)

Vanguard 1 - Visible Passes

Search period start: 22 July 2018 00:00
Search period end: 01 August 2018 00:00
Orbit: 650 x 3833 km, 34.2° (Epoch: 21 July)

Date Brightness Start Highest point End Pass type
(mag) Time Alt. Az. Time Alt. Az. Time Alt. Az.
22 Jul 10.1 04:04:09 35° SSW 04:04:09 35° SSW 04:09:29 10° SE visible
22 Jul 10.8 21:15:36 10° SW 21:24:31 40° SSE 21:28:12 21° ESE visible
22 Jul 11.6 23:38:34 10° WSW 23:40:57 21° WSW 23:40:57 21° WSW visible
23 Jul 10.6 04:24:48 25° SSW 04:24:50 25° SSW 04:29:51 10° SSE visible
23 Jul 10.4 21:36:25 10° SW 21:45:34 51° SSE 21:48:31 28° E visible
23 Jul 11.9 23:59:49 10° W 00:01:16 16° W 00:01:16 16° W visible
24 Jul 11.1 04:45:31 17° SSW 04:45:49 17° SSW 04:49:40 10° SSE visible
24 Jul 10.1 21:57:30 10° WSW 22:06:34 64° SSE 22:08:43 40° E visible
25 Jul 12.2 00:21:03 10° W 00:21:28 12° W 00:21:28 12° W visible
25 Jul 11.5 05:06:15 10° SSW 05:06:49 10° SSW 05:07:36 10° SSW visible
25 Jul 9.9 22:18:48 10° WSW 22:27:34 77° SSE 22:28:50 57° E visible
26 Jul 11.2 20:15:30 10° SW 20:27:31 48° SSE 20:34:14 10° E visible
26 Jul 9.7 22:40:11 10° W 22:48:34 86° S 22:48:53 81° ESE visible
27 Jul 10.9 20:36:32 10° WSW 20:48:39 60° SSE 20:55:12 10° E visible
27 Jul 10.0 23:01:37 10° W 23:08:50 70° W 23:08:50 70° W visible
28 Jul 10.7 20:57:49 10° WSW 21:09:43 71° SSE 21:16:01 10° E visible
28 Jul 10.6 23:23:02 10° W 23:28:44 48° W 23:28:44 48° W visible
29 Jul 10.5 21:19:18 10° WSW 21:30:47 81° S 21:35:53 17° E visible
29 Jul 11.2 23:44:24 10° W 23:48:35 33° W 23:48:35 33° W visible
30 Jul 10.4 21:40:53 10° W 21:51:52 88° S 21:55:42 27° E visible
31 Jul 11.8 00:05:45 10° W 00:08:25 22° W 00:08:25 22° W visible
31 Jul 10.3 22:02:30 10° W 22:12:57 89° N 22:15:28 41° E visible
